TimeCST,TemperatureF,Dew PointF,Humidity,Sea Level PressureIn,VisibilityMPH,Wind Direction,Wind SpeedMPH,Gust SpeedMPH,PrecipitationIn,Events,Conditions,WindDirDegrees,DateUTC
12:53 AM,39.0,36.0,89,30.15,10.0,Calm,Calm,-,N/A,,Clear,0,2013-01-21 06:53:00
1:53 AM,37.0,34.0,89,30.15,10.0,Calm,Calm,-,N/A,,Clear,0,2013-01-21 07:53:00
2:53 AM,35.1,33.1,92,30.15,10.0,Calm,Calm,-,N/A,,Clear,0,2013-01-21 08:53:00
3:53 AM,36.0,33.1,89,30.16,10.0,Calm,Calm,-,N/A,,Clear,0,2013-01-21 09:53:00
4:53 AM,36.0,33.1,89,30.17,10.0,Calm,Calm,-,N/A,,Clear,0,2013-01-21 10:53:00
5:53 AM,34.0,32.0,92,30.18,9.0,Calm,Calm,-,N/A,,Clear,0,2013-01-21 11:53:00
6:53 AM,34.0,32.0,92,30.20,10.0,Calm,Calm,-,N/A,,Clear,0,2013-01-21 12:53:00
7:53 AM,37.0,34.0,89,30.22,10.0,Calm,Calm,-,N/A,,Clear,0,2013-01-21 13:53:00
8:53 AM,45.0,37.9,76,30.24,9.0,Calm,Calm,-,N/A,,Clear,0,2013-01-21 14:53:00
10:54 AM,60.1,44.1,55,30.23,-9999.0,Calm,Calm,-,N/A,,Unknown,0,2013-01-21 16:54:00
11:53 AM,64.0,43.0,46,30.19,10.0,NW,9.2,-,N/A,,Clear,320,2013-01-21 17:53:00
12:53 PM,66.0,42.1,42,30.17,10.0,NE,8.1,-,N/A,,Clear,40,2013-01-21 18:53:00
1:53 PM,66.0,42.1,42,30.17,10.0,North,6.9,-,N/A,,Partly Cloudy,360,2013-01-21 19:53:00
2:53 PM,66.0,39.0,37,30.17,10.0,North,6.9,16.1,N/A,,Scattered Clouds,350,2013-01-21 20:53:00
3:53 PM,64.0,39.9,41,30.19,10.0,NNE,9.2,-,N/A,,Mostly Cloudy,30,2013-01-21 21:53:00
4:53 PM,63.0,39.9,43,30.19,10.0,North,5.8,-,N/A,,Clear,350,2013-01-21 22:53:00
5:53 PM,59.0,42.1,53,30.21,10.0,North,4.6,-,N/A,,Clear,360,2013-01-21 23:53:00
6:53 PM,55.9,42.1,60,30.22,10.0,Calm,Calm,-,N/A,,Clear,0,2013-01-22 00:53:00
7:53 PM,50.0,43.0,77,30.22,10.0,Calm,Calm,-,N/A,,Clear,0,2013-01-22 01:53:00
8:53 PM,48.0,42.1,80,30.24,10.0,North,3.5,-,N/A,,Clear,350,2013-01-22 02:53:00
9:53 PM,46.0,41.0,83,30.24,10.0,Calm,Calm,-,N/A,,Clear,0,2013-01-22 03:53:00
10:53 PM,46.9,37.9,71,30.25,10.0,Calm,Calm,-,N/A,,Clear,0,2013-01-22 04:53:00
11:53 PM,41.0,37.9,89,30.25,10.0,Calm,Calm,-,N/A,,Clear,0,2013-01-22 05:53:00